Zurück zum Katalog

FENGYUN 1C DEB

AktivSSO
NORAD 32111·DEBRIS·🇨🇳 China

Gestartet May 10, 1999 von Taiyuan Satellite Launch Center

Loading…

Nächste Überflüge (nächste 24 Stunden)

TLE

AktuellSource: Space-Track

Epoche: Sep 13, 2026, 05:53 UTC

1 32111U 99025CRD 26256.24534903  .00000301  00000-0  11849-3 0  9994
2 32111  98.4545 253.7671 0120807 112.6103 312.7025 14.31859314999598

Verfolge FENGYUN 1C DEB in Echtzeit mit AllMySat

Download on the App Store